BAW56 FAOR-EGLL

Flight info

Callsign BAW56
Flight time 7h 32m
Altitude 24000
Route VASUR3B VASUR Z21 ITROL/N0502F340 UQ25 RUDAS UT941 IBRIT UM998 VUE/N0502F360 UB733 KSA DCT BZ UA604 FRV UR986 TAKUM DCT MIMBA/N0495F380 UA604 TMS UA615 GHA/N0482F390 UB726 KAHIL UZ333 ZEM/N0487F400 UB16 PECES DCT MAMOM DCT ELTAN DCT MHN DCT MEROS DCT LAPIT DCT CHELY DCT LUMAS DCT SOFFY DCT MRM DCT MTL DCT ETREK DCT MADOT DCT MOPEM DCT CACHI DCT AVLON DCT OKRIX DCT BRY/N0465F360 DCT CLM DCT KOPOR DCT ABNUR DCT DIMAL DCT ALESO
Aircraft A388/J-SADE2E3FGHIJ3J4J5M1RWXY/LB1D1

Departure

Time 2026-05-07 08:51
Airport O.R. Tambo International Airport (FAOR)

Arrival

Time 2026-05-07 16:23
Airport London Heathrow Airport (EGLL)
Time Latitude Longitude Altitude Speed Heading
2026-05-07 08:22 -26.13044 28.23617 5528 ft 0 kts
2026-05-07 08:40 -26.13046 28.23617 5528 ft 2 kts
2026-05-07 08:40 -26.13061 28.23615 5528 ft 2 kts
2026-05-07 08:41 -26.13075 28.23612 5528 ft 2 kts 10°
2026-05-07 08:41 -26.13093 28.23602 5535 ft 3 kts 40°
2026-05-07 08:41 -26.13104 28.23581 5536 ft 3 kts 66°
2026-05-07 08:41 -26.13113 28.23560 5534 ft 3 kts 66°
2026-05-07 08:42 -26.13117 28.23544 5535 ft 3 kts 78°
2026-05-07 08:42 -26.13118 28.23525 5536 ft 0 kts 90°
2026-05-07 08:42 -26.13118 28.23518 5536 ft 3 kts 93°
2026-05-07 08:42 -26.13117 28.23514 5535 ft 0 kts 96°
2026-05-07 08:44 -26.13118 28.23519 5536 ft 2 kts 96°
2026-05-07 08:45 -26.13122 28.23564 5536 ft 10 kts 97°
2026-05-07 08:45 -26.13131 28.23651 5530 ft 12 kts 89°
2026-05-07 08:45 -26.13089 28.23715 5528 ft 11 kts 18°
2026-05-07 08:45 -26.12996 28.23744 5527 ft 17 kts 15°
2026-05-07 08:46 -26.12855 28.23786 5525 ft 25 kts 15°
2026-05-07 08:46 -26.12666 28.23842 5523 ft 29 kts 14°
2026-05-07 08:46 -26.12463 28.23906 5520 ft 30 kts 19°
2026-05-07 08:46 -26.12268 28.23969 5517 ft 30 kts 15°
2026-05-07 08:47 -26.12067 28.24029 5514 ft 30 kts 15°
2026-05-07 08:47 -26.11866 28.24090 5511 ft 30 kts 15°
2026-05-07 08:47 -26.11664 28.24155 5508 ft 30 kts 16°
2026-05-07 08:47 -26.11461 28.24219 5505 ft 30 kts 15°
2026-05-07 08:48 -26.11256 28.24282 5502 ft 31 kts 15°
2026-05-07 08:48 -26.11051 28.24345 5499 ft 28 kts 15°
2026-05-07 08:48 -26.10915 28.24430 5496 ft 22 kts 53°
2026-05-07 08:48 -26.10849 28.24556 5493 ft 10 kts 97°
2026-05-07 08:49 -26.10886 28.24596 5493 ft 4 kts 179°
2026-05-07 08:49 -26.10916 28.24590 5494 ft 4 kts 195°
2026-05-07 08:49 -26.10936 28.24584 5494 ft 3 kts 195°
2026-05-07 08:49 -26.11041 28.24552 5497 ft 42 kts 195°
2026-05-07 08:50 -26.11550 28.24393 5507 ft 107 kts 195°
2026-05-07 08:50 -26.12431 28.24122 5519 ft 151 kts 195°
2026-05-07 08:50 -26.13513 28.23781 5665 ft 166 kts 198°
2026-05-07 08:50 -26.14637 28.23469 6127 ft 168 kts 196°
2026-05-07 08:51 -26.15792 28.23155 6508 ft 173 kts 195°
2026-05-07 08:51 -26.16928 28.22818 6978 ft 170 kts 199°
2026-05-07 08:51 -26.18066 28.22414 7263 ft 175 kts 202°
2026-05-07 08:51 -26.19147 28.21724 7382 ft 185 kts 218°
2026-05-07 08:52 -26.20029 28.20631 7409 ft 198 kts 245°
2026-05-07 08:52 -26.20319 28.19098 7493 ft 209 kts 265°
2026-05-07 08:52 -26.19938 28.17488 7527 ft 226 kts 298°
2026-05-07 08:52 -26.18726 28.16241 7631 ft 254 kts 328°
2026-05-07 08:53 -26.16998 28.15516 7798 ft 279 kts 339°
2026-05-07 08:53 -26.15075 28.14919 8306 ft 288 kts 340°
2026-05-07 08:53 -26.13172 28.14275 8946 ft 290 kts 338°
2026-05-07 08:53 -26.11252 28.13533 9652 ft 291 kts 335°
2026-05-07 08:54 -26.09354 28.12734 10297 ft 293 kts 334°
2026-05-07 08:54 -26.07418 28.11885 10560 ft 307 kts 333°
2026-05-07 08:54 -26.05379 28.10973 10729 ft 325 kts 333°
2026-05-07 08:54 -26.03225 28.10012 10936 ft 339 kts 334°
2026-05-07 08:55 -26.01025 28.09039 11558 ft 339 kts 334°
2026-05-07 08:55 -25.98840 28.08076 12298 ft 336 kts 334°
2026-05-07 08:55 -25.96656 28.07113 12934 ft 337 kts 333°
2026-05-07 08:55 -25.94474 28.06147 13522 ft 339 kts 333°
2026-05-07 08:56 -25.92275 28.05175 14084 ft 341 kts 333°
2026-05-07 08:56 -25.90090 28.04210 14611 ft 342 kts 333°
2026-05-07 08:56 -25.87867 28.03228 15087 ft 345 kts 333°
2026-05-07 08:56 -25.85631 28.02241 15590 ft 347 kts 333°
2026-05-07 08:57 -25.83375 28.01245 16043 ft 350 kts 333°
2026-05-07 08:57 -25.81109 28.00249 16544 ft 352 kts 332°
2026-05-07 08:57 -25.78828 27.99246 17019 ft 354 kts 332°
2026-05-07 08:57 -25.76523 27.98229 17460 ft 356 kts 332°
2026-05-07 08:58 -25.74209 27.97208 17950 ft 358 kts 332°
2026-05-07 08:58 -25.71886 27.96184 18368 ft 361 kts 332°
2026-05-07 08:58 -25.69577 27.95166 18753 ft 362 kts 332°
2026-05-07 08:58 -25.67235 27.94135 19185 ft 362 kts 332°
2026-05-07 08:59 -25.64889 27.93102 19613 ft 363 kts 332°
2026-05-07 08:59 -25.62530 27.92066 20018 ft 364 kts 331°
2026-05-07 08:59 -25.60164 27.91027 20421 ft 365 kts 331°
2026-05-07 08:59 -25.57811 27.89948 20829 ft 363 kts 327°
2026-05-07 09:00 -25.55608 27.88607 21230 ft 359 kts 321°
2026-05-07 09:00 -25.53611 27.87025 21641 ft 355 kts 315°
2026-05-07 09:00 -25.51680 27.85298 22027 ft 356 kts 315°
2026-05-07 09:00 -25.49735 27.83590 22435 ft 357 kts 315°
2026-05-07 09:01 -25.47777 27.81882 22817 ft 358 kts 315°
2026-05-07 09:01 -25.45810 27.80169 23216 ft 359 kts 315°
2026-05-07 09:01 -25.43843 27.78456 23581 ft 361 kts 315°
2026-05-07 09:01 -25.41865 27.76733 23913 ft 362 kts 315°
2026-05-07 09:02 -25.39909 27.75028 24117 ft 365 kts 315°
2026-05-07 09:02 -25.37866 27.73245 24139 ft 374 kts 315°
2026-05-07 09:02 -25.35821 27.71461 24139 ft 384 kts 316°
2026-05-07 09:02 -25.33704 27.69617 24136 ft 390 kts 316°
2026-05-07 09:03 -25.31567 27.67763 24135 ft 389 kts 316°
2026-05-07 09:03 -25.29440 27.65919 24134 ft 388 kts 316°
2026-05-07 09:03 -25.27316 27.64074 24142 ft 390 kts 316°
2026-05-07 09:03 -25.25174 27.62214 24395 ft 392 kts 316°
2026-05-07 09:04 -25.23032 27.60355 24781 ft 392 kts 316°
2026-05-07 09:04 -25.20885 27.58493 25140 ft 393 kts 316°
2026-05-07 09:04 -25.18731 27.56623 25472 ft 395 kts 316°
2026-05-07 09:04 -25.16567 27.54746 25824 ft 396 kts 315°
2026-05-07 09:05 -25.14389 27.52857 26168 ft 398 kts 316°
2026-05-07 09:05 -25.12226 27.50984 26554 ft 400 kts 316°
2026-05-07 09:05 -25.10024 27.49078 26930 ft 402 kts 315°
2026-05-07 09:05 -25.07819 27.47170 27349 ft 404 kts 316°
2026-05-07 09:06 -25.05603 27.45252 27745 ft 405 kts 316°
2026-05-07 09:06 -25.03382 27.43314 27986 ft 409 kts 314°
2026-05-07 09:06 -25.01259 27.41228 28342 ft 410 kts 312°
2026-05-07 09:06 -24.99135 27.39123 28766 ft 411 kts 313°
2026-05-07 09:07 -24.97021 27.37039 29152 ft 414 kts 313°
2026-05-07 09:07 -24.94869 27.34921 29549 ft 416 kts 313°
2026-05-07 09:07 -24.92704 27.32792 29913 ft 418 kts 313°
2026-05-07 09:07 -24.90528 27.30653 30287 ft 420 kts 313°
2026-05-07 09:08 -24.88340 27.28504 30635 ft 422 kts 313°
2026-05-07 09:08 -24.86140 27.26344 30973 ft 424 kts 313°
2026-05-07 09:08 -24.83932 27.24176 31299 ft 426 kts 313°
2026-05-07 09:08 -24.81711 27.21997 31624 ft 428 kts 313°
2026-05-07 09:09 -24.79476 27.19801 31744 ft 433 kts 313°
2026-05-07 09:09 -24.77221 27.17589 32064 ft 435 kts 313°
2026-05-07 09:09 -24.74959 27.15375 32474 ft 435 kts 313°
2026-05-07 09:09 -24.72694 27.13158 32890 ft 435 kts 313°
2026-05-07 09:10 -24.70434 27.10947 33368 ft 434 kts 313°
2026-05-07 09:10 -24.68181 27.08744 33853 ft 432 kts 313°
2026-05-07 09:10 -24.65939 27.06550 34117 ft 431 kts 313°
2026-05-07 09:10 -24.63724 27.04385 34153 ft 433 kts 313°
2026-05-07 09:11 -24.59148 26.99905 34152 ft 446 kts 313°
2026-05-07 09:11 -24.54473 26.95346 34151 ft 450 kts 313°
2026-05-07 09:12 -24.49791 26.90785 34150 ft 449 kts 313°
2026-05-07 09:12 -24.45107 26.86225 34162 ft 449 kts 313°
2026-05-07 09:13 -24.40439 26.81684 34150 ft 448 kts 313°
2026-05-07 09:13 -24.35793 26.77168 34152 ft 448 kts 313°
2026-05-07 09:14 -24.31035 26.72657 34147 ft 456 kts 317°
2026-05-07 09:14 -24.25904 26.68525 34151 ft 457 kts 318°
2026-05-07 09:15 -24.20825 26.64416 34167 ft 457 kts 318°
2026-05-07 09:15 -24.15716 26.60284 34170 ft 457 kts 318°
2026-05-07 09:16 -24.10594 26.56147 34185 ft 457 kts 317°
2026-05-07 09:16 -24.05464 26.52008 34154 ft 459 kts 318°
2026-05-07 09:17 -24.00341 26.47880 34142 ft 459 kts 318°
2026-05-07 09:17 -23.95194 26.43737 34150 ft 459 kts 318°
2026-05-07 09:18 -23.90047 26.39598 34149 ft 459 kts 318°
2026-05-07 09:18 -23.84890 26.35455 34146 ft 459 kts 318°
2026-05-07 09:19 -23.79708 26.31309 34142 ft 462 kts 319°
2026-05-07 09:19 -23.74510 26.27165 34143 ft 462 kts 319°
2026-05-07 09:20 -23.69220 26.23210 34142 ft 465 kts 322°
2026-05-07 09:20 -23.63761 26.19428 34147 ft 465 kts 322°
2026-05-07 09:21 -23.58294 26.15627 34120 ft 467 kts 322°
2026-05-07 09:21 -23.52932 26.11658 34145 ft 465 kts 317°
2026-05-07 09:22 -23.47784 26.07393 34146 ft 465 kts 318°
2026-05-07 09:22 -23.42613 26.03139 34147 ft 465 kts 318°
2026-05-07 09:23 -23.37451 25.98897 34150 ft 465 kts 318°
2026-05-07 09:23 -23.32314 25.94679 34155 ft 467 kts 318°
2026-05-07 09:24 -23.27116 25.90415 34147 ft 467 kts 318°
2026-05-07 09:24 -23.21912 25.86151 34152 ft 467 kts 318°
2026-05-07 09:25 -23.16744 25.81920 34149 ft 467 kts 318°
2026-05-07 09:25 -23.11542 25.77666 34149 ft 467 kts 318°
2026-05-07 09:26 -23.06339 25.73415 34159 ft 467 kts 318°
2026-05-07 09:26 -23.01145 25.69175 34166 ft 467 kts 318°
2026-05-07 09:27 -22.96817 25.65647 34154 ft 467 kts 318°
2026-05-07 09:28 -22.88088 25.58704 34154 ft 468 kts 319°
2026-05-07 09:28 -22.82779 25.54608 34134 ft 471 kts 319°
2026-05-07 09:29 -22.78337 25.51166 34169 ft 471 kts 319°
2026-05-07 09:29 -22.73008 25.47032 34169 ft 471 kts 319°
2026-05-07 09:30 -22.67665 25.42889 34166 ft 470 kts 319°
2026-05-07 09:30 -22.62379 25.38794 34144 ft 470 kts 319°
2026-05-07 09:31 -22.57050 25.34669 34115 ft 470 kts 319°
2026-05-07 09:31 -22.51693 25.30527 34154 ft 472 kts 319°
2026-05-07 09:32 -22.46330 25.26385 34160 ft 472 kts 319°
2026-05-07 09:32 -22.41015 25.22284 34155 ft 472 kts 319°
2026-05-07 09:33 -22.35657 25.18154 34153 ft 473 kts 319°
2026-05-07 09:33 -22.30303 25.14030 34136 ft 474 kts 320°
2026-05-07 09:34 -22.24916 25.09884 34155 ft 475 kts 320°
2026-05-07 09:34 -22.19561 25.05769 34151 ft 475 kts 320°
2026-05-07 09:35 -22.14179 25.01636 34157 ft 475 kts 320°
2026-05-07 09:35 -22.08796 24.97507 34154 ft 474 kts 320°
2026-05-07 09:36 -22.03408 24.93376 34139 ft 476 kts 320°
2026-05-07 09:36 -21.98002 24.89236 34146 ft 476 kts 320°
2026-05-07 09:37 -21.92588 24.85095 34150 ft 476 kts 320°
2026-05-07 09:37 -21.87213 24.80979 34146 ft 476 kts 320°
2026-05-07 09:38 -21.81815 24.76837 34146 ft 476 kts 320°
2026-05-07 09:38 -21.76399 24.72685 34139 ft 479 kts 320°
2026-05-07 09:39 -21.70977 24.68535 34145 ft 479 kts 320°
2026-05-07 09:39 -21.65581 24.64410 34144 ft 479 kts 320°
2026-05-07 09:40 -21.60141 24.60254 34148 ft 479 kts 320°
2026-05-07 09:40 -21.54700 24.56102 34146 ft 479 kts 320°
2026-05-07 09:41 -21.49294 24.51980 34147 ft 479 kts 320°
2026-05-07 09:41 -21.43864 24.47844 34150 ft 479 kts 320°
2026-05-07 09:42 -21.38415 24.43697 34152 ft 479 kts 320°
2026-05-07 09:42 -21.33006 24.39585 34148 ft 479 kts 320°
2026-05-07 09:43 -21.27559 24.35447 34151 ft 479 kts 320°
2026-05-07 09:43 -21.22114 24.31314 34160 ft 480 kts 320°
2026-05-07 09:44 -21.16652 24.27172 34157 ft 480 kts 320°
2026-05-07 09:44 -21.11235 24.23069 34156 ft 480 kts 320°
2026-05-07 09:45 -21.05773 24.18935 34157 ft 480 kts 320°
2026-05-07 09:45 -21.00312 24.14805 34156 ft 480 kts 320°
2026-05-07 09:46 -20.94876 24.10700 34153 ft 481 kts 320°
2026-05-07 09:46 -20.89400 24.06566 34155 ft 481 kts 320°
2026-05-07 09:47 -20.83925 24.02438 34153 ft 481 kts 320°
2026-05-07 09:47 -20.78444 23.98308 34152 ft 481 kts 320°
2026-05-07 09:48 -20.72998 23.94209 34146 ft 481 kts 320°
2026-05-07 09:48 -20.67520 23.90089 34145 ft 482 kts 320°
2026-05-07 09:49 -20.62021 23.85957 34150 ft 482 kts 320°
2026-05-07 09:49 -20.56555 23.81854 34148 ft 482 kts 320°
2026-05-07 09:50 -20.51068 23.77738 34149 ft 482 kts 320°
2026-05-07 09:50 -20.45573 23.73620 34151 ft 482 kts 320°
2026-05-07 09:51 -20.40089 23.69513 34149 ft 482 kts 320°
2026-05-07 09:51 -20.34633 23.65432 34148 ft 482 kts 320°
2026-05-07 09:52 -20.29140 23.61325 34149 ft 482 kts 320°
2026-05-07 09:52 -20.23644 23.57221 34145 ft 482 kts 320°
2026-05-07 09:53 -20.18141 23.53114 34143 ft 482 kts 320°
2026-05-07 09:53 -20.12645 23.49016 34160 ft 483 kts 320°
2026-05-07 09:54 -20.07170 23.44938 34139 ft 483 kts 320°
2026-05-07 09:54 -20.01660 23.40841 34201 ft 483 kts 321°
2026-05-07 09:55 -19.95719 23.37364 34198 ft 492 kts 331°
2026-05-07 09:55 -19.89379 23.34563 34195 ft 492 kts 332°
2026-05-07 09:56 -19.83062 23.31733 34194 ft 492 kts 331°
2026-05-07 09:56 -19.76738 23.28901 34176 ft 492 kts 331°
2026-05-07 09:57 -19.70459 23.26094 34152 ft 492 kts 331°
2026-05-07 09:57 -19.64138 23.23272 34143 ft 492 kts 331°
2026-05-07 09:58 -19.57821 23.20454 34138 ft 492 kts 331°
2026-05-07 09:58 -19.51499 23.17638 34139 ft 491 kts 331°
2026-05-07 09:59 -19.45235 23.14847 34137 ft 491 kts 331°
2026-05-07 09:59 -19.38934 23.12043 34138 ft 491 kts 331°
2026-05-07 10:00 -19.32627 23.09239 34139 ft 491 kts 331°
2026-05-07 10:00 -19.26313 23.06435 34113 ft 491 kts 330°
2026-05-07 10:01 -19.20031 23.03647 34133 ft 491 kts 330°
2026-05-07 10:01 -19.13717 23.00846 34129 ft 491 kts 330°
2026-05-07 10:02 -19.07403 22.98048 34125 ft 491 kts 330°
2026-05-07 10:02 -19.01077 22.95266 34125 ft 492 kts 331°
2026-05-07 10:03 -18.94772 22.92561 34121 ft 493 kts 330°
2026-05-07 10:03 -18.88422 22.89833 34123 ft 492 kts 330°
2026-05-07 10:04 -18.82087 22.87108 34125 ft 492 kts 330°
2026-05-07 10:04 -18.75735 22.84376 34124 ft 492 kts 330°
2026-05-07 10:05 -18.69387 22.81648 34117 ft 492 kts 330°
2026-05-07 10:05 -18.63058 22.78902 34121 ft 491 kts 329°
2026-05-07 10:06 -18.56768 22.76080 34117 ft 491 kts 329°
2026-05-07 10:06 -18.50517 22.73285 34118 ft 491 kts 329°
2026-05-07 10:07 -18.44212 22.70479 34109 ft 491 kts 329°
2026-05-07 10:07 -18.37910 22.67678 34110 ft 491 kts 329°
2026-05-07 10:08 -18.31618 22.64885 34110 ft 490 kts 329°
2026-05-07 10:08 -18.25332 22.62095 34111 ft 490 kts 329°
2026-05-07 10:09 -18.19037 22.59304 34104 ft 491 kts 329°
2026-05-07 10:09 -18.12797 22.56540 34106 ft 491 kts 329°
2026-05-07 10:10 -18.06498 22.53751 34083 ft 491 kts 329°
2026-05-07 10:10 -18.00198 22.50964 34100 ft 491 kts 329°
2026-05-07 10:11 -17.93896 22.48179 34097 ft 491 kts 329°
2026-05-07 10:11 -17.87657 22.45303 34095 ft 488 kts 327°
2026-05-07 10:12 -17.81496 22.42389 34093 ft 489 kts 328°
2026-05-07 10:12 -17.75179 22.39675 34084 ft 491 kts 329°
2026-05-07 10:13 -17.68840 22.36980 34091 ft 490 kts 329°
2026-05-07 10:13 -17.62562 22.34284 34092 ft 490 kts 329°
2026-05-07 10:14 -17.56246 22.31565 34088 ft 490 kts 329°
2026-05-07 10:14 -17.49913 22.28841 34090 ft 490 kts 329°
2026-05-07 10:15 -17.43627 22.26140 34085 ft 490 kts 329°
2026-05-07 10:15 -17.37303 22.23425 34086 ft 490 kts 329°
2026-05-07 10:16 -17.30979 22.20713 34082 ft 490 kts 329°
2026-05-07 10:16 -17.25719 22.18457 34081 ft 490 kts 329°
2026-05-07 10:17 -17.19403 22.15752 34083 ft 490 kts 329°
2026-05-07 10:17 -17.13067 22.13038 34082 ft 492 kts 329°
2026-05-07 10:18 -17.06772 22.10348 34077 ft 491 kts 329°
2026-05-07 10:18 -17.00448 22.07645 34076 ft 491 kts 329°
2026-05-07 10:19 -16.94112 22.04938 34080 ft 491 kts 329°
2026-05-07 10:19 -16.87791 22.02240 34075 ft 491 kts 329°
2026-05-07 10:20 -16.81442 21.99531 34075 ft 493 kts 330°
2026-05-07 10:20 -16.75123 21.96839 34075 ft 493 kts 330°
2026-05-07 10:21 -16.68770 21.94134 34069 ft 492 kts 330°
2026-05-07 10:21 -16.62416 21.91430 34073 ft 493 kts 330°
2026-05-07 10:22 -16.56097 21.88743 34069 ft 493 kts 330°
2026-05-07 10:22 -16.49733 21.86037 34062 ft 494 kts 330°
2026-05-07 10:23 -16.43348 21.83326 34067 ft 494 kts 330°
2026-05-07 10:23 -16.36978 21.80623 34064 ft 494 kts 330°
2026-05-07 10:24 -16.30612 21.77924 34064 ft 493 kts 330°
2026-05-07 10:24 -16.24286 21.75243 34061 ft 493 kts 330°
2026-05-07 10:25 -16.17895 21.72536 34054 ft 494 kts 330°
2026-05-07 10:25 -16.11517 21.69838 34062 ft 494 kts 330°
2026-05-07 10:26 -16.05177 21.67157 34057 ft 495 kts 330°
2026-05-07 10:26 -15.98789 21.64458 34056 ft 495 kts 330°
2026-05-07 10:27 -15.92407 21.61763 34055 ft 494 kts 330°
2026-05-07 10:27 -15.86014 21.59064 34055 ft 497 kts 331°
2026-05-07 10:28 -15.79601 21.56360 34053 ft 496 kts 331°
2026-05-07 10:28 -15.73233 21.53677 34051 ft 496 kts 331°
2026-05-07 10:29 -15.66824 21.50978 34038 ft 496 kts 331°
2026-05-07 10:29 -15.60426 21.48286 34048 ft 496 kts 331°
2026-05-07 10:30 -15.50778 21.44228 34043 ft 499 kts 331°
2026-05-07 10:30 -15.44354 21.41530 34043 ft 499 kts 331°
2026-05-07 10:31 -15.37956 21.38844 34041 ft 499 kts 331°
2026-05-07 10:31 -15.31520 21.36143 34042 ft 499 kts 331°
2026-05-07 10:32 -15.25073 21.33439 34033 ft 501 kts 332°
2026-05-07 10:32 -15.18610 21.30732 34034 ft 501 kts 332°
2026-05-07 10:33 -15.12145 21.28025 34034 ft 501 kts 332°
2026-05-07 10:33 -15.05678 21.25320 34035 ft 501 kts 332°
2026-05-07 10:34 -14.99209 21.22614 34031 ft 501 kts 332°
2026-05-07 10:34 -14.92765 21.19919 34029 ft 503 kts 332°
2026-05-07 10:35 -14.86252 21.17200 34031 ft 503 kts 332°
2026-05-07 10:35 -14.79792 21.14504 34028 ft 503 kts 332°
2026-05-07 10:36 -14.73297 21.11796 34027 ft 503 kts 332°
2026-05-07 10:36 -14.66805 21.09089 34026 ft 502 kts 332°
2026-05-07 10:37 -14.60283 21.06371 34019 ft 506 kts 332°
2026-05-07 10:37 -14.53744 21.03649 34024 ft 506 kts 332°
2026-05-07 10:38 -14.47242 21.00945 34022 ft 506 kts 332°
2026-05-07 10:38 -14.40707 20.98229 34021 ft 506 kts 332°
2026-05-07 10:39 -14.34171 20.95513 34019 ft 506 kts 332°
2026-05-07 10:39 -14.27673 20.92815 34018 ft 506 kts 332°
2026-05-07 10:40 -14.21145 20.90106 34020 ft 506 kts 332°
2026-05-07 10:40 -14.14610 20.87396 34018 ft 506 kts 332°
2026-05-07 10:41 -14.08107 20.84700 34016 ft 506 kts 332°
2026-05-07 10:41 -14.01569 20.81992 34018 ft 506 kts 332°
2026-05-07 10:42 -13.95020 20.79279 34014 ft 507 kts 333°
2026-05-07 10:42 -13.88457 20.76565 34012 ft 507 kts 333°
2026-05-07 10:43 -13.81945 20.73873 34013 ft 507 kts 333°
2026-05-07 10:43 -13.75384 20.71162 34011 ft 507 kts 333°
2026-05-07 10:44 -13.68826 20.68454 34010 ft 508 kts 333°
2026-05-07 10:44 -13.62248 20.65739 34010 ft 509 kts 333°
2026-05-07 10:45 -13.55705 20.63041 34009 ft 509 kts 333°
2026-05-07 10:45 -13.49128 20.60330 34010 ft 509 kts 333°
2026-05-07 10:46 -13.42538 20.57615 34003 ft 509 kts 334°
2026-05-07 10:46 -13.35953 20.54904 34003 ft 509 kts 333°
2026-05-07 10:47 -13.29386 20.52201 34017 ft 512 kts 334°
2026-05-07 10:47 -13.22764 20.49478 34017 ft 512 kts 334°
2026-05-07 10:48 -13.16141 20.46757 34007 ft 511 kts 334°
2026-05-07 10:48 -13.09581 20.44063 34000 ft 510 kts 334°
2026-05-07 10:49 -13.02988 20.41356 34000 ft 510 kts 334°
2026-05-07 10:49 -12.96372 20.38641 33993 ft 512 kts 334°
2026-05-07 10:50 -12.89782 20.35939 33984 ft 512 kts 334°
2026-05-07 10:50 -12.83140 20.33217 33987 ft 512 kts 334°
2026-05-07 10:51 -12.76511 20.30503 33990 ft 512 kts 334°
2026-05-07 10:51 -12.69889 20.27792 33986 ft 513 kts 334°
2026-05-07 10:52 -12.63294 20.25093 33999 ft 514 kts 335°
2026-05-07 10:52 -12.56652 20.22377 33996 ft 513 kts 335°
2026-05-07 10:53 -12.50013 20.19664 33981 ft 513 kts 335°
2026-05-07 10:53 -12.43373 20.16953 33981 ft 513 kts 335°
2026-05-07 10:54 -12.36724 20.14238 33996 ft 514 kts 335°
2026-05-07 10:54 -12.30086 20.11529 33992 ft 514 kts 335°
2026-05-07 10:55 -12.23439 20.08820 33991 ft 514 kts 335°
2026-05-07 10:55 -12.16834 20.06128 33993 ft 514 kts 335°
2026-05-07 10:56 -12.10179 20.03417 33994 ft 514 kts 335°
2026-05-07 10:56 -12.03539 20.00713 34097 ft 516 kts 335°
2026-05-07 10:57 -12.00189 19.99348 34481 ft 516 kts 336°
2026-05-07 10:57 -11.96895 19.98009 34894 ft 514 kts 336°
2026-05-07 10:57 -11.93573 19.96658 35338 ft 513 kts 336°
2026-05-07 10:57 -11.90270 19.95315 35769 ft 511 kts 336°
2026-05-07 10:58 -11.86968 19.93972 35950 ft 508 kts 336°
2026-05-07 10:58 -11.83688 19.92639 35983 ft 507 kts 336°
2026-05-07 10:58 -11.77154 19.89907 35983 ft 506 kts 333°
2026-05-07 10:59 -11.71069 19.86324 35979 ft 505 kts 327°
2026-05-07 10:59 -11.65085 19.82583 35984 ft 506 kts 327°
2026-05-07 11:00 -11.59108 19.78862 35977 ft 505 kts 327°
2026-05-07 11:00 -11.53119 19.75133 35976 ft 502 kts 327°
2026-05-07 11:01 -11.47143 19.71413 35973 ft 506 kts 328°
2026-05-07 11:01 -11.41191 19.67711 35970 ft 501 kts 327°
2026-05-07 11:02 -11.35209 19.63990 35960 ft 505 kts 328°
2026-05-07 11:02 -11.30175 19.60861 35963 ft 505 kts 328°
2026-05-07 11:03 -11.24238 19.57173 35967 ft 504 kts 328°
2026-05-07 11:03 -11.18221 19.53437 35962 ft 505 kts 328°
2026-05-07 11:04 -11.12237 19.49724 35960 ft 504 kts 328°
2026-05-07 11:04 -11.06216 19.45988 35960 ft 507 kts 328°
2026-05-07 11:05 -11.00210 19.42265 35961 ft 503 kts 328°
2026-05-07 11:05 -10.94233 19.38561 35960 ft 506 kts 328°
2026-05-07 11:06 -10.88224 19.34839 35956 ft 505 kts 328°
2026-05-07 11:06 -10.82207 19.31113 35956 ft 505 kts 328°
2026-05-07 11:07 -10.76228 19.27413 35956 ft 505 kts 328°
2026-05-07 11:07 -10.70214 19.23693 35962 ft 505 kts 328°
2026-05-07 11:08 -10.64161 19.19951 35952 ft 508 kts 328°
2026-05-07 11:08 -10.58168 19.16247 35952 ft 507 kts 328°
2026-05-07 11:09 -10.52123 19.12513 35947 ft 508 kts 328°
2026-05-07 11:09 -10.46087 19.08787 35955 ft 505 kts 328°
2026-05-07 11:10 -10.40084 19.05082 35952 ft 509 kts 328°
2026-05-07 11:10 -10.34049 19.01359 35949 ft 506 kts 328°
2026-05-07 11:11 -10.28020 18.97642 35949 ft 505 kts 328°
2026-05-07 11:11 -10.22005 18.93935 35951 ft 507 kts 328°
2026-05-07 11:12 -10.15974 18.90220 35953 ft 507 kts 328°
2026-05-07 11:12 -10.09947 18.86509 35949 ft 509 kts 328°
2026-05-07 11:13 -10.03907 18.82792 35945 ft 504 kts 328°
2026-05-07 11:13 -9.97889 18.79089 35937 ft 512 kts 329°
2026-05-07 11:14 -9.91806 18.75349 35939 ft 511 kts 329°
2026-05-07 11:14 -9.85721 18.71609 35931 ft 512 kts 329°
2026-05-07 11:15 -9.79642 18.67874 35928 ft 511 kts 329°
2026-05-07 11:15 -9.73562 18.64140 35918 ft 511 kts 329°
2026-05-07 11:16 -9.67471 18.60402 35911 ft 511 kts 329°
2026-05-07 11:16 -9.61423 18.56690 35919 ft 512 kts 329°
2026-05-07 11:17 -9.55321 18.52948 35915 ft 511 kts 329°
2026-05-07 11:17 -9.49231 18.49213 35912 ft 511 kts 329°
2026-05-07 11:18 -9.43134 18.45476 35914 ft 512 kts 329°
2026-05-07 11:18 -9.37081 18.41768 35909 ft 510 kts 329°
2026-05-07 11:19 -9.30992 18.38038 35914 ft 512 kts 329°
2026-05-07 11:19 -9.24892 18.34304 35913 ft 511 kts 329°
2026-05-07 11:20 -9.18843 18.30603 35912 ft 511 kts 329°
2026-05-07 11:20 -9.12735 18.26867 35910 ft 511 kts 329°
2026-05-07 11:21 -9.06639 18.23140 35912 ft 512 kts 329°
2026-05-07 11:21 -9.00544 18.19415 35910 ft 511 kts 329°
2026-05-07 11:22 -8.94448 18.15690 35909 ft 512 kts 330°
2026-05-07 11:22 -8.88391 18.11991 35908 ft 512 kts 329°
2026-05-07 11:23 -8.82291 18.08267 35906 ft 511 kts 330°
2026-05-07 11:23 -8.76194 18.04547 35906 ft 512 kts 329°
2026-05-07 11:24 -8.70087 18.00821 35904 ft 512 kts 330°
2026-05-07 11:24 -8.63987 17.97102 35893 ft 511 kts 330°
2026-05-07 11:25 -8.57917 17.93403 35898 ft 511 kts 330°
2026-05-07 11:25 -8.51820 17.89689 35897 ft 512 kts 330°
2026-05-07 11:26 -8.45700 17.85961 35894 ft 513 kts 330°
2026-05-07 11:26 -8.39632 17.82266 35894 ft 511 kts 330°
2026-05-07 11:27 -8.33526 17.78550 35892 ft 513 kts 330°
2026-05-07 11:27 -8.27406 17.74828 35891 ft 513 kts 330°
2026-05-07 11:28 -8.21291 17.71109 35896 ft 512 kts 330°
2026-05-07 11:28 -8.15205 17.67408 35895 ft 513 kts 329°
2026-05-07 11:29 -8.09087 17.63690 35896 ft 513 kts 330°
2026-05-07 11:29 -8.02972 17.59975 35895 ft 512 kts 330°
2026-05-07 11:30 -7.96862 17.56266 35893 ft 512 kts 330°
2026-05-07 11:30 -7.90735 17.52549 35896 ft 514 kts 330°
2026-05-07 11:31 -7.84616 17.48838 35899 ft 512 kts 330°
2026-05-07 11:31 -7.78524 17.45144 35894 ft 514 kts 330°
2026-05-07 11:32 -7.69325 17.39568 35894 ft 513 kts 330°
2026-05-07 11:33 -7.63203 17.35860 35894 ft 514 kts 330°
2026-05-07 11:33 -7.57077 17.32148 35890 ft 512 kts 330°
2026-05-07 11:34 -7.50997 17.28360 35887 ft 515 kts 328°
2026-05-07 11:34 -7.44986 17.24523 35891 ft 514 kts 329°
2026-05-07 11:35 -7.38932 17.20682 35889 ft 514 kts 329°
2026-05-07 11:35 -7.32866 17.16846 35887 ft 513 kts 329°
2026-05-07 11:36 -7.26811 17.13019 35885 ft 513 kts 329°
2026-05-07 11:36 -7.20769 17.09202 35885 ft 515 kts 329°
2026-05-07 11:37 -7.14693 17.05364 35885 ft 515 kts 329°
2026-05-07 11:37 -7.08630 17.01535 35891 ft 514 kts 329°
2026-05-07 11:38 -7.02573 16.97712 35886 ft 514 kts 329°
2026-05-07 11:38 -6.96518 16.93891 35892 ft 514 kts 329°
2026-05-07 11:39 -6.90456 16.90067 35893 ft 514 kts 329°
2026-05-07 11:39 -6.84392 16.86242 35896 ft 517 kts 329°
2026-05-07 11:40 -6.73081 16.79112 35901 ft 517 kts 329°
2026-05-07 11:40 -6.60888 16.71430 35904 ft 517 kts 329°
2026-05-07 11:41 -6.48786 16.63809 35912 ft 515 kts 329°
2026-05-07 11:41 -6.36642 16.56167 35911 ft 514 kts 329°
2026-05-07 11:42 -6.24469 16.48510 35912 ft 514 kts 329°
2026-05-07 11:42 -6.12386 16.40916 35914 ft 516 kts 328°
2026-05-07 11:43 -6.00249 16.33302 35909 ft 516 kts 330°
2026-05-07 11:43 -5.87537 16.26437 35913 ft 515 kts 332°
2026-05-07 11:44 -5.74950 16.19651 35921 ft 516 kts 332°
2026-05-07 11:44 -5.62276 16.12826 35926 ft 516 kts 332°
2026-05-07 11:45 -5.49641 16.05934 35934 ft 516 kts 330°
2026-05-07 11:45 -5.37300 15.98612 35937 ft 516 kts 330°
2026-05-07 11:46 -5.24894 15.91344 35937 ft 516 kts 330°
2026-05-07 11:46 -5.07946 15.81425 35935 ft 513 kts 330°
2026-05-07 11:47 -4.95198 15.73968 35935 ft 514 kts 330°
2026-05-07 11:47 -4.82851 15.66749 35935 ft 513 kts 330°
2026-05-07 11:48 -4.70480 15.59520 35934 ft 515 kts 331°
2026-05-07 11:48 -4.58074 15.52272 35934 ft 515 kts 331°
2026-05-07 11:49 -4.45701 15.45047 35936 ft 515 kts 331°
2026-05-07 11:49 -4.34896 15.35787 35938 ft 519 kts 313°
2026-05-07 11:50 -4.29782 15.29973 35940 ft 519 kts 313°
2026-05-07 11:50 -4.21028 15.21850 35936 ft 515 kts 327°
2026-05-07 11:51 -4.09230 15.13688 35936 ft 515 kts 327°
2026-05-07 11:51 -3.97439 15.05505 35935 ft 515 kts 327°
2026-05-07 11:52 -3.85651 14.97333 35938 ft 515 kts 327°
2026-05-07 11:52 -3.73848 14.89153 35937 ft 517 kts 326°
2026-05-07 11:53 -3.62009 14.80950 35935 ft 518 kts 326°
2026-05-07 11:53 -3.50227 14.72790 35934 ft 518 kts 327°
2026-05-07 11:54 -3.38381 14.64587 35934 ft 518 kts 327°
2026-05-07 11:54 -3.26508 14.56369 35932 ft 516 kts 327°
2026-05-07 11:55 -3.14766 14.48244 35930 ft 516 kts 327°
2026-05-07 11:55 -3.02904 14.40038 35932 ft 516 kts 327°
2026-05-07 11:56 -2.91075 14.31856 35931 ft 517 kts 327°
2026-05-07 11:56 -2.79229 14.23666 35925 ft 517 kts 327°
2026-05-07 11:57 -2.67452 14.15525 35923 ft 516 kts 327°
2026-05-07 11:57 -2.55635 14.07359 35922 ft 517 kts 327°
2026-05-07 11:58 -2.43791 13.99175 35924 ft 517 kts 327°
2026-05-07 11:58 -2.31956 13.91000 35917 ft 517 kts 327°
2026-05-07 11:59 -2.20183 13.82854 35911 ft 519 kts 327°
2026-05-07 11:59 -2.08335 13.74531 35912 ft 519 kts 327°
2026-05-07 12:00 -1.96492 13.66234 35909 ft 519 kts 327°
2026-05-07 12:00 -1.84707 13.57981 35935 ft 519 kts 327°
2026-05-07 12:01 -1.72905 13.49716 35965 ft 518 kts 327°
2026-05-07 12:01 -1.60481 13.42684 35965 ft 513 kts 343°
2026-05-07 12:02 -1.46933 13.37953 35947 ft 513 kts 342°
2026-05-07 12:02 -1.33472 13.33225 35911 ft 513 kts 342°
2026-05-07 12:03 -1.20078 13.28528 35908 ft 513 kts 342°
2026-05-07 12:03 -1.06574 13.23793 35908 ft 514 kts 342°
2026-05-07 12:04 -0.93031 13.19044 35903 ft 514 kts 342°
2026-05-07 12:04 -0.79599 13.14334 35903 ft 514 kts 342°
2026-05-07 12:05 -0.66058 13.09586 35903 ft 514 kts 342°
2026-05-07 12:05 -0.52567 13.04857 35902 ft 514 kts 342°
2026-05-07 12:06 -0.39057 13.00120 35905 ft 514 kts 342°
2026-05-07 12:06 -0.25633 12.95414 35907 ft 514 kts 342°
2026-05-07 12:07 -0.12118 12.90676 35906 ft 514 kts 342°
2026-05-07 12:07 0.01372 12.85947 35905 ft 512 kts 343°
2026-05-07 12:08 0.14816 12.81234 35908 ft 512 kts 342°
2026-05-07 12:08 0.28269 12.76518 35908 ft 513 kts 342°
2026-05-07 12:09 0.41737 12.71796 35906 ft 511 kts 342°
2026-05-07 12:09 0.55111 12.67110 35905 ft 512 kts 342°
2026-05-07 12:10 0.68553 12.62398 35909 ft 511 kts 342°
2026-05-07 12:10 0.81984 12.57688 35914 ft 510 kts 342°
2026-05-07 12:11 0.95384 12.52990 35911 ft 510 kts 342°
2026-05-07 12:11 1.08711 12.48316 35913 ft 510 kts 342°
2026-05-07 12:12 1.22093 12.43623 35917 ft 508 kts 342°
2026-05-07 12:12 1.35469 12.38932 35919 ft 509 kts 342°
2026-05-07 12:13 1.48829 12.34246 35919 ft 509 kts 342°
2026-05-07 12:13 1.62066 12.29602 35933 ft 506 kts 342°
2026-05-07 12:14 1.75381 12.24931 35941 ft 506 kts 342°
2026-05-07 12:14 1.88677 12.20266 35946 ft 505 kts 342°
2026-05-07 12:15 2.01905 12.15624 35954 ft 503 kts 342°
2026-05-07 12:15 2.15062 12.11007 35957 ft 503 kts 342°
2026-05-07 12:16 2.28306 12.06357 35959 ft 502 kts 342°
2026-05-07 12:16 2.41550 12.01708 35974 ft 504 kts 342°
2026-05-07 12:17 2.54703 11.97089 35980 ft 504 kts 342°
2026-05-07 12:17 2.67984 11.92424 35979 ft 504 kts 342°
2026-05-07 12:18 2.81255 11.87762 35990 ft 504 kts 342°
2026-05-07 12:18 2.94436 11.83131 35996 ft 504 kts 342°
2026-05-07 12:19 3.07659 11.78484 36001 ft 502 kts 343°
2026-05-07 12:19 3.20866 11.73841 36012 ft 502 kts 343°
2026-05-07 12:20 3.33969 11.69234 36015 ft 502 kts 342°
2026-05-07 12:20 3.47135 11.64603 36020 ft 500 kts 343°
2026-05-07 12:21 3.60274 11.59981 36021 ft 500 kts 343°
2026-05-07 12:21 3.73405 11.55319 36022 ft 501 kts 340°
2026-05-07 12:22 3.86221 11.49943 36021 ft 499 kts 340°
2026-05-07 12:22 3.98998 11.44600 36021 ft 500 kts 340°
2026-05-07 12:23 4.11840 11.39227 36007 ft 499 kts 339°
2026-05-07 12:23 4.24663 11.33859 35998 ft 499 kts 339°
2026-05-07 12:24 4.37494 11.28487 35985 ft 499 kts 340°
2026-05-07 12:24 4.50240 11.23147 35976 ft 500 kts 339°
2026-05-07 12:25 4.63079 11.17766 35975 ft 499 kts 339°
2026-05-07 12:25 4.75919 11.12383 35975 ft 499 kts 339°
2026-05-07 12:26 4.88780 11.06989 35971 ft 500 kts 339°
2026-05-07 12:26 5.01562 11.01623 35969 ft 500 kts 339°
2026-05-07 12:27 5.14411 10.96228 35964 ft 500 kts 339°
2026-05-07 12:27 5.27244 10.90836 35961 ft 500 kts 339°
2026-05-07 12:28 5.40090 10.85437 35965 ft 500 kts 339°
2026-05-07 12:28 5.52940 10.80034 35964 ft 500 kts 339°
2026-05-07 12:29 5.65828 10.74722 35963 ft 499 kts 343°
2026-05-07 12:29 5.79007 10.70322 35959 ft 499 kts 343°
2026-05-07 12:30 5.92105 10.65926 35966 ft 499 kts 343°
2026-05-07 12:30 6.05288 10.61501 35972 ft 499 kts 343°
2026-05-07 12:31 6.18501 10.57061 35976 ft 499 kts 343°
2026-05-07 12:31 6.31579 10.52667 35969 ft 499 kts 343°
2026-05-07 12:32 6.44732 10.48243 35952 ft 498 kts 343°
2026-05-07 12:32 6.57882 10.43819 35950 ft 497 kts 343°
2026-05-07 12:33 6.77580 10.37187 35901 ft 496 kts 342°
2026-05-07 12:33 6.90593 10.32803 35887 ft 496 kts 343°
2026-05-07 12:34 7.03789 10.28746 35880 ft 496 kts 344°
2026-05-07 12:34 7.17017 10.24681 35874 ft 496 kts 344°
2026-05-07 12:35 7.30236 10.20607 35867 ft 496 kts 344°
2026-05-07 12:35 7.43467 10.16526 35868 ft 497 kts 344°
2026-05-07 12:36 7.56736 10.12430 35858 ft 498 kts 344°
2026-05-07 12:36 7.69993 10.08336 35855 ft 498 kts 344°
2026-05-07 12:37 7.83179 10.04261 35848 ft 498 kts 344°
2026-05-07 12:37 7.96448 10.00157 35847 ft 498 kts 343°
2026-05-07 12:38 8.07473 9.96746 35845 ft 498 kts 343°
2026-05-07 12:38 8.20738 9.92638 35846 ft 498 kts 343°
2026-05-07 12:39 8.36145 9.87864 35844 ft 498 kts 343°
2026-05-07 12:39 8.47223 9.84429 35843 ft 498 kts 343°
2026-05-07 12:40 8.60510 9.80306 35838 ft 499 kts 343°
2026-05-07 12:40 8.73699 9.76210 35842 ft 499 kts 343°
2026-05-07 12:41 8.86963 9.72089 35843 ft 499 kts 343°
2026-05-07 12:41 9.00222 9.67965 35850 ft 497 kts 343°
2026-05-07 12:42 9.13465 9.63844 35860 ft 498 kts 343°
2026-05-07 12:42 9.26731 9.59711 35862 ft 498 kts 343°
2026-05-07 12:43 9.39982 9.55581 35861 ft 497 kts 343°
2026-05-07 12:43 9.53153 9.51472 35879 ft 497 kts 343°
2026-05-07 12:44 9.66393 9.47338 35874 ft 497 kts 343°
2026-05-07 12:44 9.79672 9.43189 35871 ft 499 kts 343°
2026-05-07 12:45 9.92874 9.39060 35867 ft 499 kts 343°
2026-05-07 12:45 10.06163 9.34901 35887 ft 499 kts 343°
2026-05-07 12:46 10.19458 9.30736 35885 ft 499 kts 343°
2026-05-07 12:46 10.32776 9.26560 35886 ft 499 kts 343°
2026-05-07 12:47 10.45986 9.22414 35909 ft 500 kts 343°
2026-05-07 12:47 10.59283 9.18238 35908 ft 500 kts 343°
2026-05-07 12:48 10.72602 9.14051 35907 ft 500 kts 343°
2026-05-07 12:48 10.85908 9.09863 35904 ft 500 kts 343°
2026-05-07 12:49 10.99117 9.05703 35917 ft 501 kts 343°
2026-05-07 12:49 11.12417 9.01510 35916 ft 500 kts 343°
2026-05-07 12:50 11.25737 8.97306 35914 ft 500 kts 343°
2026-05-07 12:50 11.39027 8.93108 35922 ft 500 kts 343°
2026-05-07 12:51 11.52328 8.88903 35923 ft 500 kts 343°
2026-05-07 12:51 11.65620 8.84696 35924 ft 499 kts 343°
2026-05-07 12:52 11.78836 8.80508 35923 ft 499 kts 343°
2026-05-07 12:52 11.92083 8.76307 35934 ft 499 kts 342°
2026-05-07 12:53 12.05365 8.72091 35969 ft 499 kts 342°
2026-05-07 12:53 12.18682 8.67859 35966 ft 501 kts 342°
2026-05-07 12:54 12.32004 8.63621 35948 ft 500 kts 342°
2026-05-07 12:54 12.45313 8.59382 35924 ft 500 kts 342°
2026-05-07 12:55 12.58608 8.55143 35917 ft 500 kts 342°
2026-05-07 12:55 12.71834 8.50922 35904 ft 500 kts 342°
2026-05-07 12:56 12.85182 8.46658 36585 ft 501 kts 342°
2026-05-07 12:56 12.91805 8.44540 37666 ft 496 kts 342°
2026-05-07 12:56 12.98388 8.42435 37880 ft 490 kts 342°
2026-05-07 12:57 13.11585 8.38953 37881 ft 492 kts 352°
2026-05-07 12:57 13.25147 8.37686 37872 ft 492 kts 353°
2026-05-07 12:58 13.38809 8.36404 37858 ft 490 kts 353°
2026-05-07 12:58 13.52418 8.35131 37856 ft 491 kts 353°
2026-05-07 12:59 13.66037 8.33855 37846 ft 491 kts 353°
2026-05-07 12:59 13.79647 8.32579 37845 ft 490 kts 352°
2026-05-07 13:00 13.93164 8.31306 37837 ft 490 kts 352°
2026-05-07 13:00 14.06747 8.30027 37841 ft 490 kts 352°
2026-05-07 13:01 14.20299 8.28749 37833 ft 488 kts 352°
2026-05-07 13:01 14.33785 8.27475 37827 ft 488 kts 352°
2026-05-07 13:02 14.47340 8.26194 37815 ft 488 kts 352°
2026-05-07 13:02 14.60896 8.24911 37810 ft 488 kts 352°
2026-05-07 13:03 14.74445 8.23626 37811 ft 488 kts 352°
2026-05-07 13:03 14.87982 8.22342 37801 ft 488 kts 352°
2026-05-07 13:04 15.01516 8.21056 37795 ft 488 kts 352°
2026-05-07 13:04 15.15070 8.19769 37806 ft 490 kts 351°
2026-05-07 13:05 15.28643 8.18483 37795 ft 490 kts 352°
2026-05-07 13:05 15.42174 8.17198 37796 ft 490 kts 351°
2026-05-07 13:06 15.55782 8.15903 37807 ft 492 kts 351°
2026-05-07 13:06 15.69419 8.14605 37792 ft 492 kts 351°
2026-05-07 13:07 15.83088 8.13302 37788 ft 492 kts 351°
2026-05-07 13:07 15.96809 8.11992 37790 ft 495 kts 351°
2026-05-07 13:08 16.10489 8.10684 37794 ft 495 kts 351°
2026-05-07 13:08 16.24268 8.09365 37790 ft 498 kts 351°
2026-05-07 13:09 16.38060 8.08043 37792 ft 497 kts 351°
2026-05-07 13:09 16.51775 8.06726 37790 ft 498 kts 351°
2026-05-07 13:10 16.65604 8.05397 37782 ft 499 kts 351°
2026-05-07 13:10 16.79441 8.04064 37787 ft 499 kts 351°
2026-05-07 13:11 16.93248 8.02717 37887 ft 496 kts 348°
2026-05-07 13:11 17.06204 7.98429 37883 ft 487 kts 333°
2026-05-07 13:12 17.18586 7.92946 37837 ft 486 kts 333°
2026-05-07 13:12 17.31040 7.87396 37777 ft 486 kts 333°
2026-05-07 13:13 17.43472 7.81848 37785 ft 486 kts 333°
2026-05-07 13:13 17.55934 7.76277 37774 ft 486 kts 333°
2026-05-07 13:14 17.68398 7.70697 37773 ft 487 kts 333°
2026-05-07 13:14 17.80796 7.65139 37771 ft 487 kts 333°
2026-05-07 13:15 17.93254 7.59545 37778 ft 487 kts 333°
2026-05-07 13:15 18.05728 7.53936 37766 ft 486 kts 333°
2026-05-07 13:16 18.18183 7.48326 37766 ft 486 kts 333°
2026-05-07 13:16 18.30568 7.42740 37751 ft 488 kts 332°
2026-05-07 13:17 18.43056 7.37097 37760 ft 488 kts 332°
2026-05-07 13:17 18.55554 7.31441 37774 ft 488 kts 332°
2026-05-07 13:18 18.68051 7.25778 37779 ft 486 kts 332°
2026-05-07 13:18 18.80423 7.20160 37759 ft 486 kts 331°
2026-05-07 13:19 18.92860 7.14506 37757 ft 486 kts 331°
2026-05-07 13:19 19.05288 7.08846 37765 ft 484 kts 331°
2026-05-07 13:20 19.17600 7.03228 37770 ft 484 kts 331°
2026-05-07 13:20 19.29984 6.97569 37772 ft 484 kts 331°
2026-05-07 13:21 19.42322 6.91922 37773 ft 483 kts 331°
2026-05-07 13:21 19.54691 6.86250 37774 ft 483 kts 331°
2026-05-07 13:22 19.66978 6.80607 37768 ft 484 kts 330°
2026-05-07 13:22 19.79344 6.74919 37768 ft 483 kts 330°
2026-05-07 13:23 19.91679 6.69235 37768 ft 483 kts 330°
2026-05-07 13:23 20.04009 6.63544 37759 ft 482 kts 330°
2026-05-07 13:24 20.16379 6.57943 37765 ft 484 kts 332°
2026-05-07 13:24 20.28856 6.52767 37762 ft 484 kts 332°
2026-05-07 13:25 20.41374 6.47491 37762 ft 482 kts 332°
2026-05-07 13:25 20.51771 6.43098 37760 ft 483 kts 332°
2026-05-07 13:26 20.64290 6.37802 37760 ft 483 kts 332°
2026-05-07 13:26 20.76809 6.32495 37760 ft 483 kts 332°
2026-05-07 13:27 20.89305 6.27190 37761 ft 483 kts 332°
2026-05-07 13:27 21.01799 6.21875 37760 ft 483 kts 332°
2026-05-07 13:28 21.14213 6.16586 37757 ft 483 kts 331°
2026-05-07 13:28 21.26708 6.11252 37757 ft 483 kts 331°
2026-05-07 13:29 21.39230 6.05896 37761 ft 485 kts 331°
2026-05-07 13:29 21.51757 6.00528 37766 ft 485 kts 331°
2026-05-07 13:30 21.64301 5.95144 37763 ft 484 kts 331°
2026-05-07 13:30 21.76796 5.89769 37768 ft 487 kts 331°
2026-05-07 13:31 21.89366 5.84354 37768 ft 487 kts 331°
2026-05-07 13:31 22.01950 5.78921 37771 ft 487 kts 331°
2026-05-07 13:32 22.14565 5.73464 37782 ft 489 kts 331°
2026-05-07 13:32 22.27221 5.67979 37789 ft 490 kts 331°
2026-05-07 13:33 22.39869 5.62489 37795 ft 490 kts 330°
2026-05-07 13:33 22.52541 5.56975 37872 ft 490 kts 330°
2026-05-07 13:34 22.71432 5.48735 38092 ft 490 kts 330°
2026-05-07 13:35 22.84461 5.44040 38104 ft 506 kts 343°
2026-05-07 13:35 22.98404 5.41777 38018 ft 506 kts 343°
2026-05-07 13:36 23.12341 5.39492 37886 ft 506 kts 343°
2026-05-07 13:36 23.26280 5.37208 37835 ft 507 kts 343°
2026-05-07 13:37 23.40128 5.34933 37835 ft 505 kts 342°
2026-05-07 13:37 23.54038 5.32640 37792 ft 507 kts 342°
2026-05-07 13:38 23.67989 5.30337 37800 ft 510 kts 342°
2026-05-07 13:38 23.82074 5.28009 37796 ft 510 kts 342°
2026-05-07 13:39 23.96009 5.25699 37809 ft 510 kts 342°
2026-05-07 13:39 24.10097 5.23358 37824 ft 512 kts 342°
2026-05-07 13:40 24.24208 5.21010 37840 ft 512 kts 342°
2026-05-07 13:40 24.38320 5.18655 37848 ft 513 kts 341°
2026-05-07 13:41 24.52445 5.16294 37853 ft 513 kts 341°
2026-05-07 13:41 24.66445 5.13947 37859 ft 513 kts 341°
2026-05-07 13:42 24.80569 5.11575 37859 ft 513 kts 341°
2026-05-07 13:42 24.94689 5.09198 37870 ft 512 kts 341°
2026-05-07 13:43 25.08779 5.06818 37865 ft 512 kts 341°
2026-05-07 13:43 25.22880 5.04434 37865 ft 512 kts 341°
2026-05-07 13:44 25.36881 5.02059 37867 ft 513 kts 341°
2026-05-07 13:44 25.51012 4.99658 37877 ft 513 kts 341°
2026-05-07 13:45 25.65119 4.97254 37881 ft 513 kts 340°
2026-05-07 13:45 25.79248 4.94841 37887 ft 514 kts 340°
2026-05-07 13:46 25.93267 4.92443 37892 ft 513 kts 340°
2026-05-07 13:46 26.07434 4.90011 37890 ft 513 kts 340°
2026-05-07 13:47 26.21563 4.87586 37875 ft 512 kts 340°
2026-05-07 13:47 26.35696 4.85143 37900 ft 513 kts 340°
2026-05-07 13:48 26.49710 4.82721 37900 ft 513 kts 340°
2026-05-07 13:48 26.63821 4.80275 37882 ft 512 kts 340°
2026-05-07 13:49 26.77936 4.77823 37881 ft 513 kts 340°
2026-05-07 13:49 26.92079 4.75359 37872 ft 514 kts 340°
2026-05-07 13:50 27.06235 4.72888 37873 ft 514 kts 340°
2026-05-07 13:50 27.20316 4.70422 37861 ft 515 kts 340°
2026-05-07 13:51 27.34502 4.67932 37864 ft 515 kts 340°
2026-05-07 13:51 27.48715 4.65430 37872 ft 517 kts 340°
2026-05-07 13:52 27.62950 4.62920 37872 ft 518 kts 340°
2026-05-07 13:52 27.77194 4.60400 37873 ft 518 kts 340°
2026-05-07 13:53 27.91345 4.57890 37872 ft 518 kts 340°
2026-05-07 13:53 28.05624 4.55351 37876 ft 520 kts 341°
2026-05-07 13:54 28.19929 4.52802 37875 ft 520 kts 341°
2026-05-07 13:54 28.34245 4.50240 37876 ft 522 kts 341°
2026-05-07 13:55 28.48597 4.47672 37867 ft 521 kts 341°
2026-05-07 13:55 28.62960 4.45151 37859 ft 521 kts 342°
2026-05-07 13:56 28.77204 4.42662 37854 ft 521 kts 342°
2026-05-07 13:56 28.91542 4.40145 37859 ft 520 kts 342°
2026-05-07 13:57 29.05829 4.37630 37859 ft 519 kts 342°
2026-05-07 13:57 29.20114 4.35109 37861 ft 518 kts 342°
2026-05-07 13:58 29.34363 4.32588 37856 ft 518 kts 342°
2026-05-07 13:58 29.48537 4.30071 37876 ft 517 kts 342°
2026-05-07 13:59 29.62760 4.27539 37854 ft 516 kts 342°
2026-05-07 13:59 29.76977 4.25014 37881 ft 516 kts 342°
2026-05-07 14:00 29.91087 4.22546 37837 ft 514 kts 342°
2026-05-07 14:00 30.05260 4.20053 37868 ft 515 kts 342°
2026-05-07 14:01 30.19460 4.17549 37828 ft 516 kts 342°
2026-05-07 14:01 30.33656 4.15037 37846 ft 516 kts 342°
2026-05-07 14:02 30.47857 4.12518 37821 ft 516 kts 342°
2026-05-07 14:02 30.62074 4.09987 37810 ft 516 kts 342°
2026-05-07 14:03 30.76265 4.07455 37812 ft 516 kts 342°
2026-05-07 14:03 30.90460 4.04913 37853 ft 518 kts 342°
2026-05-07 14:04 31.04685 4.02359 37803 ft 519 kts 342°
2026-05-07 14:04 31.18967 3.99787 37835 ft 520 kts 342°
2026-05-07 14:05 31.33362 3.97186 37796 ft 523 kts 342°
2026-05-07 14:05 31.47696 3.94589 37825 ft 525 kts 342°
2026-05-07 14:06 31.62153 3.91962 37797 ft 525 kts 342°
2026-05-07 14:06 31.76636 3.89319 37811 ft 526 kts 341°
2026-05-07 14:07 31.91110 3.86673 37806 ft 526 kts 341°
2026-05-07 14:07 32.05626 3.84007 37802 ft 530 kts 341°
2026-05-07 14:08 32.20193 3.81326 37816 ft 529 kts 341°
2026-05-07 14:08 32.34745 3.78636 37884 ft 535 kts 341°
2026-05-07 14:08 32.42316 3.78258 37883 ft 555 kts 356°
2026-05-07 14:09 32.50053 3.79353 37875 ft 559 kts 359°
2026-05-07 14:09 32.65530 3.81550 37828 ft 561 kts 358°
2026-05-07 14:10 32.81018 3.83786 37813 ft 560 kts 359°
2026-05-07 14:10 32.96595 3.86041 37822 ft 565 kts 359°
2026-05-07 14:11 33.12219 3.88308 37837 ft 564 kts 359°
2026-05-07 14:11 33.27650 3.90542 37820 ft 562 kts 359°
2026-05-07 14:12 33.43164 3.92797 37835 ft 561 kts 359°
2026-05-07 14:12 33.58702 3.95064 37833 ft 562 kts 359°
2026-05-07 14:13 33.74168 3.97330 37834 ft 559 kts 359°
2026-05-07 14:13 33.89626 3.99601 37876 ft 559 kts 359°
2026-05-07 14:14 34.04950 4.01862 37837 ft 558 kts 359°
2026-05-07 14:14 34.12588 4.02083 37840 ft 541 kts 346°
2026-05-07 14:14 34.20007 4.00880 37851 ft 538 kts 344°
2026-05-07 14:15 34.34836 3.98486 37831 ft 537 kts 343°
2026-05-07 14:15 34.47181 3.96458 37847 ft 537 kts 344°
2026-05-07 14:16 34.62001 3.94011 37851 ft 537 kts 344°
2026-05-07 14:16 34.76827 3.91557 37835 ft 537 kts 344°
2026-05-07 14:17 34.91566 3.89107 37828 ft 537 kts 344°
2026-05-07 14:17 35.06409 3.86631 37822 ft 539 kts 344°
2026-05-07 14:18 35.21263 3.84145 37843 ft 537 kts 345°
2026-05-07 14:18 35.35996 3.81669 37844 ft 534 kts 344°
2026-05-07 14:19 35.50715 3.79202 37834 ft 530 kts 344°
2026-05-07 14:19 35.65388 3.76703 37840 ft 532 kts 345°
2026-05-07 14:20 35.80083 3.74209 37851 ft 533 kts 345°
2026-05-07 14:20 35.94697 3.71718 37854 ft 533 kts 345°
2026-05-07 14:21 36.09380 3.69209 37860 ft 533 kts 344°
2026-05-07 14:21 36.24117 3.66678 37855 ft 531 kts 345°
2026-05-07 14:22 36.38775 3.64152 37855 ft 531 kts 345°
2026-05-07 14:22 36.53469 3.61608 38350 ft 536 kts 344°
2026-05-07 14:22 36.60826 3.60336 39327 ft 532 kts 344°
2026-05-07 14:23 36.68180 3.59057 39914 ft 536 kts 344°
2026-05-07 14:23 36.82931 3.58030 39870 ft 546 kts 359°
2026-05-07 14:24 36.95089 3.60546 39889 ft 552 kts
2026-05-07 14:24 37.02675 3.62193 39862 ft 552 kts
2026-05-07 14:25 37.10242 3.63861 39863 ft 552 kts
2026-05-07 14:25 37.17794 3.65539 39896 ft 553 kts
2026-05-07 14:26 37.25385 3.67223 39858 ft 553 kts
2026-05-07 14:26 37.32951 3.68908 39868 ft 553 kts
2026-05-07 14:27 37.40534 3.70600 39865 ft 553 kts
2026-05-07 14:27 37.48073 3.72285 39869 ft 553 kts
2026-05-07 14:28 37.55627 3.73978 39872 ft 553 kts
2026-05-07 14:28 37.63222 3.75683 39873 ft 553 kts
2026-05-07 14:29 37.70795 3.77387 39876 ft 553 kts
2026-05-07 14:29 37.78359 3.79092 39876 ft 552 kts
2026-05-07 14:30 37.85935 3.80804 39877 ft 551 kts
2026-05-07 14:30 37.93434 3.82502 39878 ft 551 kts
2026-05-07 14:31 38.00989 3.84215 39887 ft 551 kts
2026-05-07 14:31 38.08541 3.85932 39883 ft 551 kts
2026-05-07 14:32 38.16057 3.87644 39885 ft 551 kts
2026-05-07 14:32 38.23606 3.89367 39890 ft 551 kts
2026-05-07 14:33 38.31167 3.91097 39892 ft 551 kts
2026-05-07 14:33 38.38721 3.92829 39895 ft 551 kts
2026-05-07 14:34 38.46270 3.94563 39898 ft 551 kts
2026-05-07 14:34 38.53826 3.96158 39897 ft 549 kts
2026-05-07 14:35 38.61338 3.97523 39903 ft 549 kts
2026-05-07 14:35 38.68905 3.98936 39899 ft 549 kts
2026-05-07 14:36 38.76484 4.00378 39900 ft 550 kts
2026-05-07 14:36 38.84055 4.01826 39924 ft 550 kts
2026-05-07 14:37 38.91622 4.03276 39908 ft 550 kts
2026-05-07 14:37 39.02939 4.05450 39909 ft 550 kts
2026-05-07 14:38 39.10504 4.06907 39910 ft 550 kts
2026-05-07 14:38 39.18067 4.08367 39919 ft 549 kts
2026-05-07 14:39 39.25632 4.09828 39920 ft 550 kts
2026-05-07 14:39 39.33203 4.11287 39925 ft 549 kts
2026-05-07 14:40 39.40753 4.12744 39924 ft 549 kts
2026-05-07 14:40 39.48315 4.14208 39924 ft 549 kts
2026-05-07 14:41 39.55835 4.15668 39938 ft 548 kts
2026-05-07 14:41 39.63390 4.17137 39948 ft 548 kts
2026-05-07 14:42 39.70944 4.18609 39960 ft 548 kts
2026-05-07 14:42 39.78439 4.20075 39967 ft 546 kts
2026-05-07 14:43 39.85969 4.21549 39965 ft 546 kts
2026-05-07 14:43 39.93480 4.23216 39966 ft 548 kts
2026-05-07 14:44 40.00928 4.25019 39962 ft 547 kts
2026-05-07 14:44 40.08420 4.26801 39947 ft 547 kts
2026-05-07 14:45 40.15906 4.28567 39953 ft 547 kts
2026-05-07 14:45 40.23404 4.30338 39955 ft 546 kts
2026-05-07 14:46 40.30899 4.32112 39956 ft 547 kts
2026-05-07 14:46 40.38384 4.33888 39955 ft 546 kts
2026-05-07 14:47 40.45855 4.35665 39956 ft 545 kts
2026-05-07 14:47 40.53328 4.37446 39960 ft 546 kts
2026-05-07 14:48 40.60782 4.39227 39961 ft 546 kts
2026-05-07 14:48 40.68262 4.41019 39966 ft 546 kts
2026-05-07 14:49 40.75689 4.42801 39962 ft 546 kts
2026-05-07 14:49 40.83165 4.44600 39979 ft 546 kts
2026-05-07 14:50 40.90648 4.46404 39967 ft 546 kts
2026-05-07 14:50 40.98127 4.48211 39969 ft 546 kts
2026-05-07 14:51 41.05599 4.50020 39984 ft 546 kts
2026-05-07 14:51 41.13028 4.51826 39969 ft 546 kts
2026-05-07 14:52 41.20503 4.53650 39972 ft 546 kts
2026-05-07 14:52 41.27974 4.55477 39980 ft 545 kts
2026-05-07 14:53 41.35437 4.57307 39973 ft 545 kts
2026-05-07 14:53 41.42904 4.59141 39973 ft 545 kts
2026-05-07 14:54 41.50371 4.60980 39974 ft 545 kts
2026-05-07 14:54 41.57832 4.62821 39976 ft 545 kts
2026-05-07 14:55 41.65248 4.64656 39984 ft 545 kts
2026-05-07 14:55 41.72701 4.66533 39981 ft 545 kts
2026-05-07 14:56 41.80033 4.69318 39981 ft 548 kts 13°
2026-05-07 14:56 41.87416 4.72192 39979 ft 547 kts 13°
2026-05-07 14:57 42.11093 4.81507 39999 ft 546 kts 13°
2026-05-07 14:57 42.40214 4.93085 39982 ft 545 kts 13°
2026-05-07 14:58 42.69321 5.04771 39986 ft 544 kts 13°
2026-05-07 14:58 42.97182 5.16064 39980 ft 543 kts 13°
2026-05-07 14:59 43.04425 5.19015 39980 ft 543 kts 13°
2026-05-07 14:59 43.11640 5.21953 39988 ft 543 kts 13°
2026-05-07 15:00 43.18877 5.24906 39978 ft 543 kts 13°
2026-05-07 15:00 43.26123 5.27870 39971 ft 543 kts 13°
2026-05-07 15:01 43.33397 5.30565 39972 ft 537 kts
2026-05-07 15:01 43.40703 5.30665 39965 ft 524 kts 347°
2026-05-07 15:02 43.47671 5.28080 39964 ft 516 kts 336°
2026-05-07 15:02 43.53391 5.25484 39967 ft 515 kts 336°
2026-05-07 15:03 43.60163 5.22409 39966 ft 515 kts 336°
2026-05-07 15:03 43.66986 5.19285 39967 ft 515 kts 336°
2026-05-07 15:04 43.73790 5.16156 39966 ft 515 kts 336°
2026-05-07 15:04 43.80588 5.13023 39964 ft 515 kts 336°
2026-05-07 15:05 43.87386 5.09883 39964 ft 515 kts 336°
2026-05-07 15:05 43.94184 5.06734 39966 ft 514 kts 336°
2026-05-07 15:06 44.00973 5.03582 39964 ft 514 kts 336°
2026-05-07 15:06 44.07723 5.00441 39941 ft 514 kts 336°
2026-05-07 15:07 44.14509 4.97275 39939 ft 514 kts 337°
2026-05-07 15:07 44.21306 4.94097 39939 ft 515 kts 337°
2026-05-07 15:08 44.28103 4.90911 39943 ft 515 kts 337°
2026-05-07 15:08 44.34866 4.87733 39953 ft 515 kts 337°
2026-05-07 15:09 44.41668 4.84529 39967 ft 515 kts 337°
2026-05-07 15:09 44.48469 4.81318 39964 ft 516 kts 337°
2026-05-07 15:10 44.55305 4.78269 39971 ft 518 kts 342°
2026-05-07 15:10 44.62439 4.76506 39968 ft 521 kts 347°
2026-05-07 15:11 44.69602 4.74893 39967 ft 521 kts 347°
2026-05-07 15:11 44.76761 4.73283 39974 ft 521 kts 347°
2026-05-07 15:12 44.83936 4.71683 39970 ft 521 kts 347°
2026-05-07 15:12 44.91066 4.70092 39981 ft 521 kts 347°
2026-05-07 15:13 44.98218 4.68493 39983 ft 520 kts 347°
2026-05-07 15:13 45.05387 4.66886 39981 ft 520 kts 347°
2026-05-07 15:14 45.12543 4.65276 39988 ft 519 kts 347°
2026-05-07 15:14 45.19642 4.63676 39992 ft 519 kts 347°
2026-05-07 15:15 45.26779 4.62049 39990 ft 520 kts 347°
2026-05-07 15:15 45.33917 4.60415 40003 ft 518 kts 347°
2026-05-07 15:16 45.41053 4.58778 39991 ft 518 kts 347°
2026-05-07 15:16 45.48172 4.57142 39999 ft 518 kts 347°
2026-05-07 15:17 45.55284 4.55504 39995 ft 517 kts 347°
2026-05-07 15:17 45.62393 4.53862 39993 ft 517 kts 347°
2026-05-07 15:18 45.69504 4.52214 40011 ft 517 kts 347°
2026-05-07 15:18 45.76593 4.50571 40002 ft 516 kts 347°
2026-05-07 15:19 45.83673 4.48921 40005 ft 515 kts 347°
2026-05-07 15:19 45.90718 4.47276 40005 ft 515 kts 347°
2026-05-07 15:20 45.97796 4.45621 40003 ft 514 kts 347°
2026-05-07 15:20 46.04867 4.43961 40003 ft 515 kts 347°
2026-05-07 15:21 46.11934 4.42299 40004 ft 514 kts 347°
2026-05-07 15:21 46.19001 4.40632 40001 ft 514 kts 347°
2026-05-07 15:22 46.26070 4.38961 40006 ft 515 kts 347°
2026-05-07 15:22 46.32988 4.36773 40002 ft 512 kts 343°
2026-05-07 15:23 46.39916 4.34357 40002 ft 512 kts 343°
2026-05-07 15:23 46.46857 4.31937 39998 ft 512 kts 343°
2026-05-07 15:24 46.53784 4.29501 39998 ft 512 kts 343°
2026-05-07 15:24 46.60715 4.27054 39995 ft 512 kts 343°
2026-05-07 15:25 46.67648 4.24601 39999 ft 512 kts 343°
2026-05-07 15:25 46.74578 4.22141 40004 ft 512 kts 343°
2026-05-07 15:26 46.81502 4.19678 40009 ft 512 kts 343°
2026-05-07 15:26 46.88380 4.17224 40005 ft 512 kts 343°
2026-05-07 15:27 46.95309 4.14746 40005 ft 511 kts 343°
2026-05-07 15:27 47.02242 4.12259 40008 ft 511 kts 343°
2026-05-07 15:28 47.09000 4.09279 39998 ft 508 kts 335°
2026-05-07 15:28 47.15556 4.05373 40011 ft 508 kts 335°
2026-05-07 15:29 47.22135 4.01524 40011 ft 508 kts 335°
2026-05-07 15:29 47.28710 3.97638 40007 ft 508 kts 335°
2026-05-07 15:30 47.35230 3.93763 40009 ft 508 kts 335°
2026-05-07 15:30 47.41792 3.89851 40018 ft 508 kts 335°
2026-05-07 15:31 47.48336 3.85939 40012 ft 508 kts 335°
2026-05-07 15:31 47.54887 3.82011 40020 ft 508 kts 335°
2026-05-07 15:32 47.61432 3.78079 40020 ft 507 kts 335°
2026-05-07 15:32 47.67980 3.74135 40015 ft 508 kts 335°
2026-05-07 15:33 47.74498 3.70198 40030 ft 508 kts 335°
2026-05-07 15:33 47.81041 3.66235 40021 ft 508 kts 335°
2026-05-07 15:34 47.87581 3.62263 40024 ft 507 kts 335°
2026-05-07 15:34 47.94119 3.58281 40029 ft 507 kts 335°
2026-05-07 15:35 48.00650 3.54288 40028 ft 507 kts 335°
2026-05-07 15:35 48.07184 3.50269 40031 ft 507 kts 335°
2026-05-07 15:36 48.13714 3.46242 40030 ft 507 kts 334°
2026-05-07 15:36 48.20249 3.42202 40030 ft 507 kts 335°
2026-05-07 15:37 48.26739 3.38180 40031 ft 508 kts 335°
2026-05-07 15:37 48.33271 3.34119 40032 ft 508 kts 335°
2026-05-07 15:38 48.39802 3.30050 40050 ft 508 kts 335°
2026-05-07 15:38 48.46334 3.25923 40037 ft 508 kts 334°
2026-05-07 15:39 48.52820 3.21768 40040 ft 508 kts 334°
2026-05-07 15:39 48.59337 3.17591 40039 ft 508 kts 334°
2026-05-07 15:40 48.65866 3.13399 40042 ft 509 kts 334°
2026-05-07 15:40 48.72381 3.09206 40040 ft 509 kts 334°
2026-05-07 15:41 48.78893 3.05002 40042 ft 509 kts 334°
2026-05-07 15:41 48.85300 3.00622 40041 ft 507 kts 329°
2026-05-07 15:42 48.91402 2.95283 40039 ft 506 kts 328°
2026-05-07 15:42 48.97537 2.89957 40040 ft 506 kts 328°
2026-05-07 15:43 49.03653 2.84609 40039 ft 506 kts 327°
2026-05-07 15:43 49.09730 2.79263 40044 ft 506 kts 327°
2026-05-07 15:44 49.15830 2.73878 40045 ft 507 kts 327°
2026-05-07 15:44 49.21939 2.68470 40039 ft 507 kts 327°
2026-05-07 15:45 49.28059 2.63037 40042 ft 507 kts 327°
2026-05-07 15:45 49.34129 2.57633 40040 ft 508 kts 327°
2026-05-07 15:46 49.43281 2.49455 40041 ft 507 kts 327°
2026-05-07 15:47 49.48353 2.44907 40042 ft 507 kts 327°
2026-05-07 15:47 49.54473 2.39474 40044 ft 508 kts 329°
2026-05-07 15:48 49.60685 2.34274 40043 ft 508 kts 329°
2026-05-07 15:48 49.66899 2.29047 40043 ft 508 kts 329°
2026-05-07 15:49 49.73119 2.23766 40051 ft 509 kts 329°
2026-05-07 15:49 49.79287 2.18503 40042 ft 509 kts 329°
2026-05-07 15:50 49.85484 2.13201 40046 ft 509 kts 329°
2026-05-07 15:50 49.91698 2.07870 40050 ft 509 kts 329°
2026-05-07 15:51 49.97852 2.02573 40049 ft 509 kts 329°
2026-05-07 15:51 50.04038 1.97234 40051 ft 508 kts 329°
2026-05-07 15:51 50.07094 1.94592 40052 ft 495 kts 328°
2026-05-07 15:52 50.10085 1.92003 40053 ft 489 kts 328°
2026-05-07 15:52 50.15902 1.86489 40055 ft 489 kts 322°
2026-05-07 15:53 50.21113 1.79768 39550 ft 484 kts 314°
2026-05-07 15:53 50.23525 1.76070 38809 ft 487 kts 313°
2026-05-07 15:53 50.25963 1.72374 37554 ft 491 kts 314°
2026-05-07 15:53 50.28412 1.68669 36542 ft 488 kts 313°
2026-05-07 15:54 50.30837 1.64987 35508 ft 486 kts 313°
2026-05-07 15:54 50.33257 1.61295 34546 ft 483 kts 313°
2026-05-07 15:54 50.35647 1.57633 33474 ft 480 kts 313°
2026-05-07 15:54 50.38028 1.53974 32336 ft 478 kts 313°
2026-05-07 15:55 50.40359 1.50390 31430 ft 472 kts 313°
2026-05-07 15:55 50.42681 1.46813 30544 ft 466 kts 313°
2026-05-07 15:55 50.44970 1.43283 29845 ft 455 kts 313°
2026-05-07 15:55 50.47183 1.39867 29410 ft 439 kts 313°
2026-05-07 15:56 50.49327 1.36553 28853 ft 426 kts 313°
2026-05-07 15:56 50.51370 1.33269 28311 ft 414 kts 310°
2026-05-07 15:56 50.53294 1.29975 27748 ft 404 kts 310°
2026-05-07 15:56 50.55161 1.26737 27202 ft 395 kts 310°
2026-05-07 15:57 50.56989 1.23579 26675 ft 386 kts 310°
2026-05-07 15:57 50.58804 1.20497 26146 ft 381 kts 311°
2026-05-07 15:57 50.60650 1.17559 25637 ft 381 kts 313°
2026-05-07 15:57 50.62536 1.14628 25105 ft 380 kts 313°
2026-05-07 15:58 50.64411 1.11709 24603 ft 378 kts 313°
2026-05-07 15:58 50.66264 1.08805 24073 ft 374 kts 313°
2026-05-07 15:58 50.68096 1.05917 23545 ft 370 kts 313°
2026-05-07 15:58 50.69905 1.03053 22995 ft 367 kts 313°
2026-05-07 15:59 50.71702 1.00200 22483 ft 365 kts 313°
2026-05-07 15:59 50.73491 0.97357 21958 ft 364 kts 313°
2026-05-07 15:59 50.75266 0.94530 21454 ft 361 kts 313°
2026-05-07 15:59 50.77026 0.91728 20939 ft 358 kts 313°
2026-05-07 16:00 50.78752 0.88976 20425 ft 356 kts 312°
2026-05-07 16:00 50.80487 0.86205 19947 ft 353 kts 312°
2026-05-07 16:00 50.82217 0.83440 19428 ft 351 kts 312°
2026-05-07 16:00 50.83933 0.80694 18927 ft 349 kts 313°
2026-05-07 16:01 50.85635 0.77969 18415 ft 347 kts 313°
2026-05-07 16:01 50.87339 0.75235 18129 ft 356 kts 313°
2026-05-07 16:01 50.89066 0.72461 18040 ft 347 kts 313°
2026-05-07 16:01 50.90718 0.69810 18024 ft 330 kts 313°
2026-05-07 16:02 50.92298 0.67273 18005 ft 315 kts 312°
2026-05-07 16:02 50.93804 0.64849 17988 ft 301 kts 312°
2026-05-07 16:02 50.95241 0.62533 17972 ft 288 kts 312°
2026-05-07 16:02 50.96616 0.60314 17955 ft 276 kts 312°
2026-05-07 16:03 50.97936 0.58181 17829 ft 267 kts 312°
2026-05-07 16:03 50.99261 0.56033 17383 ft 283 kts 312°
2026-05-07 16:03 51.00718 0.53660 17211 ft 312 kts 312°
2026-05-07 16:03 51.02244 0.51182 16980 ft 321 kts 312°
2026-05-07 16:04 51.03805 0.48657 16690 ft 319 kts 312°
2026-05-07 16:04 51.05354 0.46151 16437 ft 316 kts 312°
2026-05-07 16:04 51.06871 0.43695 16329 ft 306 kts 312°
2026-05-07 16:04 51.08360 0.41355 16228 ft 296 kts 314°
2026-05-07 16:05 51.09832 0.39132 16138 ft 286 kts 314°
2026-05-07 16:05 51.11262 0.36986 15942 ft 279 kts 314°
2026-05-07 16:05 51.12668 0.34862 15559 ft 279 kts 314°
2026-05-07 16:05 51.14081 0.32711 15015 ft 283 kts 314°
2026-05-07 16:06 51.15505 0.30536 14448 ft 285 kts 314°
2026-05-07 16:06 51.16943 0.28334 13895 ft 287 kts 314°
2026-05-07 16:06 51.18385 0.26125 13319 ft 289 kts 314°
2026-05-07 16:06 51.19838 0.23897 12718 ft 290 kts 314°
2026-05-07 16:07 51.21275 0.21693 12131 ft 291 kts 314°
2026-05-07 16:07 51.22735 0.19451 11563 ft 291 kts 314°
2026-05-07 16:07 51.24196 0.17205 10999 ft 292 kts 314°
2026-05-07 16:07 51.25655 0.14960 10409 ft 292 kts 314°
2026-05-07 16:08 51.27118 0.12709 9844 ft 290 kts 314°
2026-05-07 16:08 51.28568 0.10472 9214 ft 289 kts 314°
2026-05-07 16:08 51.30010 0.08243 8585 ft 287 kts 314°
2026-05-07 16:08 51.31448 0.06023 7985 ft 286 kts 315°
2026-05-07 16:09 51.32700 0.03616 7393 ft 280 kts 295°
2026-05-07 16:09 51.33259 0.00711 7127 ft 267 kts 273°
2026-05-07 16:09 51.33371 -0.02146 7025 ft 250 kts 274°
2026-05-07 16:09 51.33520 -0.04861 7046 ft 242 kts 275°
2026-05-07 16:10 51.33681 -0.07555 7023 ft 244 kts 274°
2026-05-07 16:10 51.33839 -0.10279 6773 ft 246 kts 275°
2026-05-07 16:10 51.33991 -0.12953 6533 ft 242 kts 274°
2026-05-07 16:10 51.34139 -0.15613 6330 ft 240 kts 274°
2026-05-07 16:11 51.34284 -0.18273 6125 ft 240 kts 274°
2026-05-07 16:11 51.34426 -0.20912 5917 ft 237 kts 274°
2026-05-07 16:11 51.34567 -0.23540 5725 ft 237 kts 274°
2026-05-07 16:11 51.34707 -0.26164 5597 ft 237 kts 274°
2026-05-07 16:12 51.34848 -0.28789 5457 ft 236 kts 274°
2026-05-07 16:12 51.34986 -0.31409 5340 ft 235 kts 274°
2026-05-07 16:12 51.35124 -0.34006 5210 ft 233 kts 274°
2026-05-07 16:12 51.35260 -0.36604 5106 ft 233 kts 274°
2026-05-07 16:13 51.35395 -0.39186 5004 ft 234 kts 274°
2026-05-07 16:13 51.35530 -0.41774 4909 ft 232 kts 274°
2026-05-07 16:13 51.35664 -0.44351 4798 ft 233 kts 274°
2026-05-07 16:13 51.35797 -0.46925 4696 ft 233 kts 274°
2026-05-07 16:14 51.35930 -0.49506 4590 ft 232 kts 274°
2026-05-07 16:14 51.36062 -0.52082 4472 ft 232 kts 274°
2026-05-07 16:14 51.36193 -0.54661 4375 ft 233 kts 274°
2026-05-07 16:14 51.36324 -0.57228 4277 ft 231 kts 274°
2026-05-07 16:15 51.36453 -0.59794 4178 ft 232 kts 274°
2026-05-07 16:15 51.36583 -0.62344 4068 ft 229 kts 274°
2026-05-07 16:15 51.36710 -0.64895 3982 ft 228 kts 274°
2026-05-07 16:15 51.36836 -0.67426 3880 ft 230 kts 274°
2026-05-07 16:16 51.36964 -0.69972 3771 ft 229 kts 274°
2026-05-07 16:16 51.37086 -0.72465 3695 ft 227 kts 274°
2026-05-07 16:16 51.37255 -0.74919 3622 ft 216 kts 285°
2026-05-07 16:16 51.38011 -0.76922 3568 ft 211 kts 316°
2026-05-07 16:17 51.39220 -0.78196 3561 ft 208 kts 335°
2026-05-07 16:17 51.40611 -0.78868 3548 ft 211 kts 348°
2026-05-07 16:17 51.42073 -0.79173 3495 ft 211 kts 355°
2026-05-07 16:17 51.43493 -0.79285 3489 ft 198 kts
2026-05-07 16:18 51.44762 -0.78610 3503 ft 193 kts 34°
2026-05-07 16:18 51.45796 -0.77250 3492 ft 192 kts 43°
2026-05-07 16:18 51.46676 -0.75656 3493 ft 186 kts 57°
2026-05-07 16:18 51.47215 -0.73811 3500 ft 181 kts 73°
2026-05-07 16:19 51.47481 -0.71853 3371 ft 178 kts 84°
2026-05-07 16:19 51.47577 -0.69906 2993 ft 171 kts 89°
2026-05-07 16:19 51.47602 -0.68031 2621 ft 165 kts 90°
2026-05-07 16:19 51.47616 -0.66204 2314 ft 166 kts 90°
2026-05-07 16:20 51.47627 -0.64320 2085 ft 166 kts 90°
2026-05-07 16:20 51.47640 -0.62487 1853 ft 168 kts 91°
2026-05-07 16:20 51.47653 -0.60605 1616 ft 166 kts 91°
2026-05-07 16:20 51.47662 -0.58784 1394 ft 161 kts 91°
2026-05-07 16:21 51.47679 -0.57084 1180 ft 146 kts 91°
2026-05-07 16:21 51.47696 -0.55507 936 ft 136 kts 89°
2026-05-07 16:21 51.47731 -0.54025 729 ft 129 kts 90°
2026-05-07 16:21 51.47744 -0.52588 565 ft 130 kts 90°
2026-05-07 16:22 51.47747 -0.51168 401 ft 129 kts 90°
2026-05-07 16:22 51.47749 -0.49736 258 ft 128 kts 89°
2026-05-07 16:22 51.47752 -0.48309 117 ft 126 kts 90°
2026-05-07 16:22 51.47755 -0.47098 100 ft 85 kts 89°
2026-05-07 16:23 51.47757 -0.46361 101 ft 54 kts 90°
2026-05-07 16:23 51.47758 -0.45832 93 ft 44 kts 89°
2026-05-07 16:23 51.47761 -0.45349 96 ft 49 kts 89°
2026-05-07 16:23 51.47762 -0.45026 100 ft 21 kts 91°
2026-05-07 16:24 51.47701 -0.44842 103 ft 18 kts 143°
2026-05-07 16:24 51.47619 -0.44808 102 ft 12 kts 211°
2026-05-07 16:24 51.47597 -0.44928 98 ft 15 kts 268°
2026-05-07 16:24 51.47594 -0.45131 98 ft 19 kts 270°
2026-05-07 16:25 51.47595 -0.45367 98 ft 23 kts 270°
2026-05-07 16:25 51.47596 -0.45650 96 ft 27 kts 270°
2026-05-07 16:25 51.47594 -0.45961 96 ft 29 kts 269°
2026-05-07 16:25 51.47591 -0.46264 97 ft 26 kts 270°
2026-05-07 16:26 51.47589 -0.46512 98 ft 11 kts 267°
2026-05-07 16:26 51.47586 -0.46617 100 ft 0 kts 268°
2026-05-07 16:26 51.47586 -0.46618 100 ft 0 kts 268°
2026-05-07 16:27 51.47586 -0.46619 100 ft 1 kts 268°
2026-05-07 16:27 51.47585 -0.46707 101 ft 14 kts 268°
2026-05-07 16:28 51.47582 -0.46897 100 ft 20 kts 269°
2026-05-07 16:28 51.47581 -0.47147 98 ft 25 kts 269°
2026-05-07 16:28 51.47581 -0.47443 97 ft 28 kts 270°
2026-05-07 16:28 51.47580 -0.47722 96 ft 18 kts 270°
2026-05-07 16:29 51.47576 -0.47823 96 ft 11 kts 247°
2026-05-07 16:29 51.47476 -0.47871 98 ft 14 kts 178°
2026-05-07 16:29 51.47370 -0.47872 100 ft 17 kts 180°
2026-05-07 16:29 51.47245 -0.47873 97 ft 15 kts 180°
2026-05-07 16:30 51.47187 -0.47873 95 ft 10 kts 180°
2026-05-07 16:30 51.47147 -0.47868 96 ft 0 kts 156°
2026-05-07 16:30 51.47132 -0.47852 98 ft 4 kts 130°
2026-05-07 16:31 51.47122 -0.47795 97 ft 7 kts 88°
2026-05-07 16:31 51.47123 -0.47729 98 ft 3 kts 88°
2026-05-07 16:31 51.47123 -0.47728 98 ft 0 kts 88°